Regional Weather Roundup
Issued by NWS

Home | Current Version | Previous Version | Text Only | Print | Product List | Glossary On
Versions: 1 2 3 4 5 6 7 8 9 10 11 12 13 14 15 16 17 18 19 20 21 22 23 24 25 26 27
000
ASUS42 KKEY 210910
RWRKEY

FLORIDA REGIONAL WEATHER ROUNDUP FOR THE FLORIDA KEYS
NATIONAL WEATHER SERVICE KEY WEST FLORIDA
400 AM EST SUN JAN 21 2018

...SOUTH FLORIDA AND THE KEYS...

CITY           SKY/WX    TMP DP  RH WIND       PRES   REMARKS
FORT MYERS     FAIR      60  57  89 NE8       30.16F
SW REGIONAL AP FAIR      59  57  93 NE6       30.16F
NAPLES         FAIR      62  59  90 NE7       30.14F
MIAMI          CLOUDY    72  64  76 N6        30.16R
WEST KENDALL   FAIR      68  63  84 NE6       30.15R
HOMESTEAD      FAIR      69  69  99 E8        30.13F
MARATHON       FAIR      66  62  87 E5        30.13F
KEY WEST INTL  FAIR      65  62  90 NE7       30.13S

...INTERNATIONAL WEATHER...

CITY           SKY/WX    TMP DP  RH WIND       PRES   REMARKS
NASSAU BAHAMAS MOCLDY    70  64  83 NE5       30.15S
CANCUN MEXICO  MOCLDY    75  68  78 E7        30.03F
COZUMEL MEXICO   N/A    N/A N/A N/A MISG        N/A

ADJACENT COASTAL WATERS...

STATION/POSITION TIME  SKY/WX   TEMP    WIND        PRES    WAVE
                                AIR SEA DIR/SP/G            HT/PER
                 (UTC)          (F)     (DEG/KT/KT) (MB)    (FT/S)
PULASKI SHOAL LI 0900            69      90/ 16/ 18 1019.4F
SAND KEY         0850            66                 1020.5F
LONG KEY         0700            64      50/  8       N/A
MOLASSES REEF    0900            72 73   80/ 15/ 16 1020.6F
FOWEY ROCKS      0900            72 73   90/ 21/ 22 1020.9F
Buoy 42097       0830               72                N/A     3/ 4

$$




USA.gov is the U.S. government's official web portal to all federal, state and local government web resources and services.